Weather History for KAVL - June, 2013

Change the Weather History Date:

Monday, June 10, 2013

  Actual Average Record
Temperature  
Mean Temperature 72 °F 69 °F  
Max Temperature 79 °F 80 °F 93 °F (1947)
Min Temperature 64 °F 58 °F 44 °F (1988)
Degree Days  
Heating Degree Days 0 1  
Month to date heating degree days 0 10  
Since 1 June heating degree days 0 10  
Since 1 July heating degree days 4077 4191  
Cooling Degree Days 7 5  
Month to date cooling degree days 59 44  
Year to date cooling degree days 110 102  
Since 1 June cooling degree days 59 44  
Growing Degree Days 22 (Base 50)    
Moisture  
Dew Point 64 °F    
Average Humidity 73    
Maximum Humidity 100    
Minimum Humidity 46    
Precipitation  
Precipitation 0.61 in 0.15 in 1.63 in (1921)
Month to date precipitation 7.31 1.47  
Year to date precipitation 36.43 19.72  
Snow  
Snow 0.00 in 0.00 in 0.00 in ()
Month to date snowfall 0.0 0.0  
Since 1 June snowfall 0.0 0.0  
Since 1 July snowfall 0.5 9.9  
Snow Depth 0.00 in    
Sea Level Pressure  
Sea Level Pressure 30.00 in    
Wind  
Wind Speed 8 mph (South)    
Max Wind Speed 16 mph    
Max Gust Speed 21 mph    
Visibility 8 miles    
Events Rain    
T = Trace of Precipitation, MM = Missing Value Source: NWS Daily Summary

Daily Weather History Graph

Daily Weather History Graph

Search for Another Location

Airport or City:

Trip Planner

Search our weather history database for the weather conditions in past years. The results will help you decide how hot, cold, wet, or windy it might be!

Date:

Astronomy

Jun. 10, 2013 Rise Set
Actual Time 6:14 AM EDT 8:45 PM EDT
Civil Twilight 5:44 AM EDT 9:14 PM EDT
Nautical Twilight 5:07 AM EDT 9:51 PM EDT
Astronomical Twilight 4:27 AM EDT 10:32 PM EDT
Moon 7:59 AM EDT (6/10) 10:14 PM EDT (6/10)
Length of Visible Light 15h 30m
Length of Day
14h 30m
Waxing Crescent, 4% of the Moon is Illuminated
Jun 10
Waxing Crescent
Jun 16
First Quarter
Jun 23
Full
Jun 30
Last Quarter
Jul 8
New

Hourly Weather History & Observations

Time (EDT) Temp. Dew Point Humidity Pressure Visibility Wind Dir Wind Speed Gust Speed Precip Events Conditions
12:32 AM 66.2 °F 64.4 °F 94% 30.10 in 7.0 mi SSE 5.8 mph - 0.02 in Rain Light Rain
12:34 AM 66.2 °F 64.4 °F 94% 30.10 in 6.0 mi SE 9.2 mph - 0.02 in Rain Light Rain
12:54 AM 66.9 °F 66.0 °F 97% 30.02 in 10.0 mi SSE 4.6 mph - 0.05 in Rain Light Rain
1:41 AM 66.2 °F 66.2 °F 100% 30.08 in 2.5 mi SE 8.1 mph - 0.04 in Rain Heavy Rain
1:49 AM 69.8 °F 66.2 °F 88% 30.08 in 3.0 mi SSE 8.1 mph - 0.11 in Rain Heavy Rain
1:52 AM 69.8 °F 66.2 °F 88% 30.08 in 2.5 mi South 8.1 mph - 0.12 in Rain Heavy Rain
1:54 AM 66.9 °F 66.0 °F 97% 30.01 in 2.5 mi South 6.9 mph - 0.14 in Rain Heavy Rain
2:04 AM 66.2 °F 66.2 °F 100% 30.07 in 2.5 mi SSE 4.6 mph - 0.10 in Rain Heavy Rain
2:12 AM 66.2 °F 66.2 °F 100% 30.07 in 4.0 mi SSE 5.8 mph - 0.13 in Rain Rain
2:38 AM 66.2 °F 66.2 °F 100% 30.06 in 10.0 mi SE 5.8 mph - 0.18 in Rain Light Rain
2:54 AM 68.0 °F 64.9 °F 90% 29.98 in 10.0 mi South 9.2 mph - 0.19 in   Overcast
3:54 AM 66.9 °F 64.9 °F 93% 29.98 in 8.0 mi SE 4.6 mph - 0.02 in Rain Light Rain
4:54 AM 66.9 °F 64.0 °F 90% 29.97 in 10.0 mi South 12.7 mph 19.6 mph 0.02 in   Mostly Cloudy
5:38 AM 66.2 °F 64.4 °F 94% 30.04 in 10.0 mi South 10.4 mph - 0.01 in   Overcast
5:54 AM 66.0 °F 64.0 °F 93% 29.98 in 9.0 mi South 8.1 mph - 0.01 in Rain Light Rain
6:06 AM 66.2 °F 64.4 °F 94% 30.04 in 8.0 mi SSE 3.5 mph - 0.01 in Rain Light Rain
6:54 AM 66.0 °F 64.0 °F 93% 29.98 in 10.0 mi South 10.4 mph 18.4 mph 0.01 in   Mostly Cloudy
7:54 AM 66.9 °F 64.0 °F 90% 29.99 in 10.0 mi South 10.4 mph - N/A   Mostly Cloudy
8:54 AM 70.0 °F 64.9 °F 84% 29.99 in 10.0 mi South 10.4 mph - N/A   Clear
9:54 AM 72.0 °F 66.0 °F 81% 29.99 in 10.0 mi SSW 10.4 mph 19.6 mph N/A   Mostly Cloudy
10:11 AM 71.6 °F 64.4 °F 78% 30.05 in 10.0 mi South 10.4 mph - N/A   Mostly Cloudy
10:23 AM 71.6 °F 64.4 °F 78% 30.05 in 10.0 mi SSW 9.2 mph - N/A   Scattered Clouds
10:54 AM 72.0 °F 64.9 °F 78% 29.97 in 10.0 mi South 13.8 mph - 0.00 in   Overcast
11:54 AM 73.9 °F 66.0 °F 76% 29.96 in 10.0 mi SSW 9.2 mph - N/A   Mostly Cloudy
12:39 PM 68.0 °F 64.4 °F 88% 30.06 in 1.8 mi West 10.4 mph 18.4 mph 0.02 in Rain Heavy Rain
12:45 PM 66.2 °F 60.8 °F 83% 30.06 in 0.8 mi WSW 12.7 mph 18.4 mph 0.11 in Rain Heavy Rain
12:49 PM 64.4 °F 55.4 °F 73% 30.05 in 1.0 mi Variable 4.6 mph 18.4 mph 0.19 in Rain Heavy Rain
12:54 PM 64.0 °F 59.0 °F 84% 29.98 in 2.0 mi ESE 4.6 mph - 0.21 in Rain Light Rain
1:01 PM 64.4 °F 60.8 °F 88% 30.04 in 10.0 mi Calm Calm - 0.00 in Rain Light Rain
1:54 PM 66.0 °F 61.0 °F 84% 29.96 in 10.0 mi Calm Calm - 0.01 in   Overcast
2:54 PM 70.0 °F 63.0 °F 78% 29.94 in 10.0 mi South 3.5 mph - N/A   Clear
3:54 PM 73.9 °F 63.0 °F 68% 29.92 in 10.0 mi SSW 5.8 mph - N/A   Clear
4:54 PM 78.1 °F 57.9 °F 50% 29.90 in 10.0 mi WNW 5.8 mph - N/A   Clear
5:54 PM 78.1 °F 57.9 °F 50% 29.91 in 10.0 mi WSW 6.9 mph - N/A   Clear
6:54 PM 75.9 °F 54.0 °F 46% 29.91 in 10.0 mi West 4.6 mph - N/A   Clear
7:54 PM 73.0 °F 64.0 °F 73% 29.90 in 10.0 mi SSW 11.5 mph - N/A   Clear
8:54 PM 70.0 °F 64.0 °F 81% 29.91 in 10.0 mi SSW 6.9 mph - N/A   Clear
9:54 PM 68.0 °F 64.0 °F 87% 29.94 in 10.0 mi SSW 5.8 mph - N/A   Clear
10:54 PM 68.0 °F 64.9 °F 90% 29.96 in 10.0 mi SSW 9.2 mph - N/A   Partly Cloudy
11:54 PM 68.0 °F 64.0 °F 87% 29.96 in 10.0 mi SSW 8.1 mph - N/A   Mostly Cloudy